Weather observations for the past three days for
Marshall Memorial Municipal Airport
Metric (Imperial)
Date Time (cdt) Wind (kph) Vis. (km) Weather Sky Cond. Temperature (ºC) Relative Humidity Wind Chill (°C) Heat Index (°C) Pressure Precipitation (cm)
Air Dwpt 6 hour altimeter (cm) sea level (mb) 1 hr 3 hr 6 hr
Max. Min.
08 15:55 Calm 16.09 Overcast SCT033 SCT040 OVC090 16 13 83% 75.69 0.0
08 15:35 Calm 16.09 Light Rain SCT035 SCT050 BKN090 16 13 83% 75.72 0.0
08 15:15 Calm 16.09 Light Rain BKN090 16 13 83% 75.72 0.0
08 14:55 Calm 16.09 Overcast SCT028 SCT034 OVC090 16 13 83% 75.74 0.0 0.03
08 14:35 Calm 16.09 Light Rain SCT031 BKN039 OVC090 15 13 88% 75.74 0.0
08 14:15 W 7 16.09 Light Rain SCT037 OVC090 15 13 88% 75.77 0.0
08 13:55 S 7 16.09 Light Drizzle SCT040 SCT070 OVC090 15 13 88% 75.77 0.0
08 13:35 S 9 16.09 Light Rain SCT042 SCT050 OVC090 15 12 82% 75.79 0.0
08 13:15 S 7 16.09 Light Rain SCT041 SCT060 OVC090 15 12 82% 75.79 0.0
08 12:55 W 9 16.09 Light Rain SCT070 OVC090 16 11 72% 75.84 0.0
08 12:35 SW 7 16.09 Mostly Cloudy BKN100 16 10 68% 75.82 0.0
08 12:15 SW 9 16.09 Partly Cloudy SCT110 16 10 68% 75.82 0.0
08 11:55 W 9 16.09 Mostly Cloudy BKN110 15 10 72% 75.84 0.0
08 11:35 SW 9 16.09 Mostly Cloudy BKN110 15 10 72% 75.84 0.0
08 11:15 SW 9 16.09 Light Rain BKN110 15 10 72% 75.84 0.0
08 10:55 SW 9 16.09 Partly Cloudy SCT090 SCT110 15 10 72% 75.87 0.0
08 10:35 S 11 16.09 Light Rain SCT037 SCT065 BKN080 14 10 77% 75.87 0.0
08 10:15 Calm 16.09 Overcast OVC090 14 10 77% 75.87 0.0
08 09:55 Calm 16.09 Overcast BKN090 OVC110 13 9 77% 75.9 0.0
08 09:35 Calm 16.09 Overcast OVC100 13 9 77% 75.9 0.0
08 09:15 Calm 16.09 Overcast OVC100 13 9 77% 75.9 0.0
08 08:55 S 11 16.09 Overcast OVC090 13 8 72% 75.9 0.0
08 08:35 SW 6 16.09 Light Rain OVC090 13 8 72% 75.92 0.0
08 08:15 SW 9 16.09 Overcast OVC110 13 8 72% 75.9 0.0
08 07:55 Calm 16.09 Light Rain SCT070 SCT090 OVC110 13 8 72% 75.9 0.0
08 07:35 Calm 16.09 Overcast OVC110 12 7 72% 75.9 0.0
08 07:15 Calm 16.09 Overcast OVC110 12 7 72% 75.87 0.0
08 06:55 Calm 16.09 Overcast OVC110 12 7 72% 75.84 0.0
08 06:35 Calm 16.09 Mostly Cloudy BKN120 12 7 72% 75.84 0.0
08 06:15 Calm 16.09 Fair CLR 11 7 77% 75.79 0.0
08 05:55 Calm 16.09 Fair CLR 11 7 77% 75.79 0.0
08 05:35 SW 7 16.09 Fair CLR 11 7 77% 75.79 0.0
08 05:15 SW 6 16.09 Fair CLR 12 7 72% 75.82 0.0
08 04:55 SW 9 16.09 Fair CLR 12 7 72% 75.79 0.0
08 04:35 SW 15 16.09 Fair CLR 12 7 72% 75.79 0.0
08 04:15 SW 15 16.09 Fair CLR 12 7 72% 75.79 0.0
08 03:55 S 13 16.09 Fair CLR 12 7 72% 75.79 0.0
08 03:35 S 11 16.09 Fair CLR 12 7 72% 75.82 0.0
08 03:15 SW 11 16.09 Fair CLR 12 7 72% 75.82 0.0
08 02:55 SW 13 16.09 Fair CLR 12 7 72% 75.84 0.0
08 02:35 S 11 16.09 Fair CLR 12 7 72% 75.84 0.0
08 02:15 S 11 16.09 Fair CLR 12 7 72% 75.87 0.0
08 01:55 SW 11 16.09 Fair CLR 12 7 72% 75.9 0.0
08 01:35 S 13 16.09 Fair CLR 12 7 72% 75.9 0.0
08 01:15 S 15 16.09 Fair CLR 13 7 67% 75.92 0.0
08 00:55 S 13 16.09 Fair CLR 13 7 67% 75.92 0.0
08 00:35 S 13 16.09 Fair CLR 13 7 67% 75.92 0.0
08 00:15 S 13 16.09 Fair CLR 13 7 67% 75.92 0.0
07 23:55 S 11 16.09 Fair CLR 13 7 67% 75.92 0.0
07 23:35 S 15 16.09 Fair CLR 14 7 63% 75.95 0.0
07 23:15 S 17 16.09 Fair CLR 14 7 63% 75.95 0.0
07 22:55 S 13 16.09 Fair CLR 14 7 63% 75.95 0.0
07 22:35 S 11 16.09 Fair CLR 13 7 67% 75.95 0.0
07 22:15 S 11 16.09 Fair CLR 14 7 63% 75.95 0.0
07 21:55 S 11 16.09 Fair CLR 14 7 63% 75.92 0.0
07 21:35 S 11 16.09 Fair CLR 14 7 63% 75.92 0.0
07 21:15 S 11 16.09 Fair CLR 15 7 59% 75.92 0.0
07 20:55 S 11 16.09 Fair CLR 15 7 59% 75.92 0.0
07 20:35 S 11 16.09 Fair CLR 15 8 63% 75.92 0.0
07 20:15 S 9 16.09 Fair CLR 16 7 55% 75.92 0.0
07 19:55 S 9 16.09 Fair CLR 17 7 52% 75.92 0.0
07 19:35 S 11 16.09 Fair CLR 17 7 52% 75.92 0.0
07 19:15 SW 11 16.09 Fair CLR 18 7 49% 75.92 0.0
07 18:55 SW 15 G 26 16.09 Fair CLR 18 7 49% 75.92 0.0
07 18:35 SW 13 G 30 16.09 Fair CLR 18 7 49% 75.92 0.0
07 18:15 SW 20 G 30 16.09 Fair CLR 18 7 49% 75.92 0.0
07 17:55 SW 19 G 28 16.09 Fair CLR 18 7 49% 75.92 0.0
07 17:35 SW 22 G 30 16.09 Fair CLR 18 7 49% 75.95 0.0
07 17:15 SW 19 G 33 16.09 Partly Cloudy SCT055 18 6 46% 75.95 0.0
07 16:55 SW 24 G 35 16.09 Partly Cloudy SCT055 18 7 49% 75.97 0.0
07 16:35 SW 19 G 35 16.09 Partly Cloudy SCT055 18 6 46% 75.97 0.0
07 16:15 SW 19 16.09 Mostly Cloudy BKN055 18 6 46% 76 0.0
07 15:15 SW 28 G 35 16.09 Partly Cloudy SCT055 18 7 49% 76.05 0.0
07 14:55 SW 20 G 31 16.09 Partly Cloudy SCT055 SCT070 18 7 49% 76.05 0.0
07 14:35 SW 24 G 35 16.09 Mostly Cloudy SCT055 BKN065 18 7 49% 76.07 0.0
07 14:15 SW 20 G 37 16.09 Mostly Cloudy BKN055 BKN065 17 6 49% 76.12 0.0
07 13:55 SW 22 G 41 16.09 Mostly Cloudy SCT055 BKN075 17 6 49% 76.12 0.0
07 13:35 SW 28 G 37 16.09 Overcast BKN060 OVC065 17 6 49% 76.15 0.0
07 13:15 SW 19 G 41 16.09 Mostly Cloudy BKN050 BKN070 17 6 49% 76.15 0.0
07 12:55 SW 24 G 35 16.09 Partly Cloudy SCT050 17 6 49% 76.17 0.0
07 12:35 SW 24 G 39 11.27 Partly Cloudy SCT050 16 6 52% 76.2 0.0
07 12:15 SW 24 G 33 16.09 Partly Cloudy SCT050 16 6 52% 76.2 0.0
07 11:55 SW 30 G 44 16.09 Partly Cloudy SCT050 16 5 48% 76.23 0.0
07 11:35 W 28 G 37 16.09 Fair CLR 16 5 48% 76.25 0.0
07 11:15 SW 20 G 28 16.09 Fair CLR 16 6 52% 76.25 0.0
07 10:55 SW 20 G 31 16.09 Fair CLR 15 6 55% 76.25 0.0
07 10:35 SW 26 G 37 16.09 Fair CLR 15 5 51% 76.25 0.0
07 10:15 SW 19 G 30 16.09 Fair CLR 14 5 55% 76.28 0.0
07 09:55 SW 15 16.09 Fair CLR 13 5 59% 76.28 0.0
07 09:35 SW 17 16.09 Fair CLR 13 5 59% 76.28 0.0
07 09:15 SW 15 16.09 Fair CLR 12 4 58% 76.3 0.0
07 08:55 SW 15 16.09 Fair CLR 11 4 62% 76.3 0.0
07 08:35 SW 9 16.09 Fair CLR 10 3 62% 9 76.33 0.0
07 08:15 SW 13 16.09 Fair CLR 9 3 66% 7 76.33 0.0
07 07:55 SW 9 16.09 Fair CLR 8 3 71% 7 76.33 0.0
07 07:35 SW 11 16.09 Fair CLR 7 3 76% 5 76.33 0.0
07 07:15 SW 9 16.09 Fair CLR 6 3 81% 4 76.33 0.0
07 06:55 SW 9 16.09 Fair CLR 5 3 87% 3 76.33 0.0
07 06:35 S 9 16.09 Fair CLR 4 3 93% 2 76.3 0.0
07 06:15 S 9 16.09 Fair CLR 4 2 87% 2 76.3 0.0
07 05:55 S 9 16.09 Fair CLR 5 3 87% 3 76.3 0.0
07 05:35 S 7 16.09 Fair CLR 5 3 87% 4 76.3 0.0
07 05:15 SW 7 16.09 Fair CLR 5 3 87% 4 76.33 0.0
07 04:55 SW 7 16.09 Fair CLR 5 3 87% 4 76.33 0.0
07 04:35 Calm 16.09 Fair CLR 5 3 87% 76.33 0.0
07 04:15 Calm 16.09 Fair CLR 6 3 81% 76.33 0.0
07 03:55 Calm 16.09 Fair CLR 6 3 81% 76.33 0.0
07 03:35 Calm 16.09 Fair CLR 6 3 81% 76.33 0.0
07 03:15 Calm 16.09 Fair CLR 6 3 81% 76.33 0.0
07 02:55 Calm 16.09 Fair CLR 6 3 81% 76.33 0.0
07 02:35 Calm 16.09 Fair CLR 6 4 87% 76.33 0.0
07 02:15 Calm 16.09 Fair CLR 6 3 81% 76.35 0.0
07 01:55 Calm 16.09 Fair CLR 6 4 87% 76.38 0.0
07 01:35 Calm 16.09 Fair CLR 6 3 81% 76.38 0.0
07 01:15 Calm 16.09 Fair CLR 7 2 71% 76.38 0.0
07 00:55 Calm 16.09 Fair CLR 7 2 71% 76.38 0.0
07 00:35 SW 7 16.09 Fair CLR 6 3 81% 5 76.38 0.0
07 00:15 Calm 16.09 Fair CLR 6 3 81% 76.38 0.0
06 23:55 Calm 16.09 Fair CLR 7 4 81% 76.4 0.0
06 23:35 Calm 16.09 Fair CLR 6 3 81% 76.4 0.0
06 23:15 Calm 16.09 Fair CLR 7 3 76% 76.4 0.0
06 22:55 Calm 16.09 Fair CLR 7 3 76% 76.4 0.0
06 22:35 Calm 16.09 Fair CLR 7 4 81% 76.4 0.0
06 22:15 Calm 16.09 Fair CLR 7 5 87% 76.4 0.0
06 21:55 Calm 16.09 Fair CLR 8 3 71% 76.38 0.0
06 21:35 Calm 16.09 Fair CLR 8 3 71% 76.38 0.0
06 21:15 Calm 16.09 Fair CLR 10 1 54% 76.38 0.0
06 20:55 Calm 16.09 Fair CLR 11 0 47% 76.35 0.0
06 20:35 Calm 16.09 Fair CLR 11 1 50% 76.33 0.0
06 20:15 N 7 16.09 Fair CLR 11 0 47% 76.33 0.0
06 19:55 NW 9 16.09 Fair CLR 12 0 44% 76.3 0.0
06 19:35 NW 7 16.09 Fair CLR 13 0 41% 76.3 0.0
06 19:15 N 15 16.09 Fair CLR 13 0 41% 76.3 0.0
06 18:55 NW 13 16.09 Fair CLR 13 0 41% 76.3 0.0
06 18:35 N 20 G 30 16.09 Fair CLR 14 -1 36% 76.3 0.0
06 18:15 N 22 G 31 16.09 Fair CLR 14 0 39% 76.3 0.0
06 17:55 N 15 16.09 Fair CLR 15 0 36% 76.3 0.0
06 17:35 N 22 G 30 16.09 Fair CLR 14 0 39% 76.3 0.0
06 17:15 NW 15 G 28 16.09 Fair CLR 15 0 36% 76.3 0.0
06 16:55 NW 20 16.09 Fair CLR 15 0 36% 76.33 0.0
06 16:35 N 6 G 30 16.09 Fair CLR 14 0 39% 76.33 0.0
06 16:15 NW 15 16.09 Fair CLR 14 0 39% 76.33 0.0
06 15:55 NW 11 G 20 16.09 Fair CLR 14 0 39% 76.38 0.0
06 15:35 W 22 G 28 16.09 Fair CLR 14 0 39% 76.38 0.0
06 15:15 NW 22 16.09 Fair CLR 13 0 41% 76.38 0.0
06 14:55 NW 19 G 30 16.09 Fair CLR 13 0 41% 76.4 0.0
06 14:35 NW 11 16.09 Partly Cloudy SCT120 13 0 41% 76.4 0.0
06 14:15 NW 19 16.09 Mostly Cloudy BKN120 13 0 41% 76.4 0.0
06 13:55 NW 15 G 26 16.09 Overcast OVC110 13 0 41% 76.43 0.0
06 13:35 NW 17 16.09 Overcast OVC110 13 0 41% 76.43 0.0
06 13:15 NW 11 G 28 16.09 Overcast OVC110 12 0 44% 76.45 0.0
06 12:55 NW 17 16.09 Overcast OVC110 13 0 41% 76.43 0.0
06 12:35 N 22 G 33 16.09 Overcast OVC110 13 1 44% 76.43 0.0
06 12:15 NW 26 G 31 16.09 Mostly Cloudy BKN110 13 1 44% 76.43 0.0
06 11:55 NW 20 G 30 16.09 Partly Cloudy SCT110 13 1 44% 76.43 0.0
06 11:35 W 17 G 28 16.09 Fair CLR 13 1 44% 76.43 0.0
06 11:15 NW 17 16.09 Fair CLR 12 0 44% 76.4 0.0
06 10:55 NW 7 16.09 Fair CLR 12 2 51% 76.4 0.0
06 10:35 NW 11 16.09 Fair CLR 12 2 51% 76.4 0.0
06 10:15 N 6 16.09 Fair CLR 12 3 54% 76.4 0.0
06 09:55 W 9 16.09 Fair CLR 11 3 58% 76.4 0.0
06 09:35 NW 15 16.09 Fair CLR 11 3 58% 76.35 0.0
06 09:15 NW 7 16.09 Fair CLR 10 3 62% 9 76.35 0.0
06 08:55 NW 9 16.09 Fair CLR 10 3 62% 9 76.33 0.0
06 08:35 NW 7 16.09 Fair CLR 9 3 66% 8 76.3 0.0
06 08:15 NW 7 16.09 Fair CLR 8 4 76% 7 76.33 0.0
06 07:55 W 6 16.09 Fair CLR 8 6 87% 76.28 0.0
06 07:35 Calm 16.09 Partly Cloudy SCT090 8 6 87% 76.25 0.0
06 07:15 Calm 16.09 Overcast SCT070 OVC090 7 5 87% 76.25 0.0
06 06:55 Calm 16.09 Overcast BKN070 OVC080 7 5 87% 76.28 0.0
06 06:35 W 6 16.09 Overcast OVC070 7 5 87% 76.25 0.0
06 06:15 W 7 16.09 Overcast SCT070 OVC080 7 5 87% 6 76.28 0.0
06 05:55 Calm 16.09 Overcast OVC090 7 5 87% 76.2 0.0
06 05:35 Calm 16.09 Overcast SCT085 OVC090 7 5 87% 76.17 0.0
06 05:15 Calm 16.09 Overcast SCT060 BKN070 OVC085 7 5 87% 76.15 0.0
06 04:55 Calm 16.09 Overcast OVC070 7 5 87% 76.17 0.0
06 04:35 Calm 16.09 Overcast OVC070 7 5 87% 76.17 0.0
06 04:15 Calm 16.09 Overcast OVC070 7 6 93% 76.15 0.0
06 03:55 Calm 16.09 Overcast OVC070 7 6 93% 76.1 0.0
06 03:35 Calm 16.09 Overcast OVC060 7 5 87% 76.05 0.0
06 03:15 Calm 16.09 Overcast SCT046 OVC060 7 5 87% 76.05 0.0
06 02:55 Calm 16.09 Light Rain OVC046 7 5 87% 76.12 0.0
06 02:35 Calm 16.09 Rain BKN042 BKN050 OVC060 7 5 87% 76.15 0.0
06 02:15 N 9 16.09 Overcast SCT044 BKN065 OVC090 7 4 81% 5 76.17 0.0
06 01:55 N 15 16.09 Light Rain BKN043 BKN050 OVC090 7 5 87% 5 76.17 0.0 0.03
06 01:35 N 28 G 37 16.09 Rain SCT043 BKN050 OVC085 8 4 76% 4 76.15 0.0 0.03
06 00:55 W 11 11.27 Light Rain SCT006 BKN060 OVC100 7 7 100% 5 76.12 0.0
06 00:35 Calm 16.09 Overcast BKN090 OVC110 7 7 100% 76.1 0.0
06 00:15 Calm 16.09 Overcast OVC090 7 7 100% 76.07 0.0
05 23:55 W 7 16.09 Overcast OVC090 7 6 93% 6 76.07 0.0
05 23:35 SW 9 16.09 Overcast OVC090 7 6 93% 5 76.07 0.0
05 23:15 SW 7 16.09 Overcast OVC100 7 6 93% 6 76.05 0.0
05 22:55 W 7 16.09 Mostly Cloudy BKN100 6 6 100% 5 76.05 0.0
05 22:35 Calm 16.09 Fair CLR 6 6 100% 76.05 0.0
05 22:15 Calm 16.09 Fair CLR 6 6 100% 76.02 0.0
05 21:55 Calm 16.09 Partly Cloudy SCT090 7 6 93% 76.02 0.0
05 21:35 Calm 16.09 Overcast OVC090 7 6 93% 76 0.0
05 21:15 Calm 16.09 Overcast OVC080 7 7 100% 76 0.0
05 20:55 Calm 16.09 Overcast OVC080 7 7 100% 75.97 0.0
05 20:35 Calm 16.09 Overcast SCT005 OVC080 7 6 93% 75.97 0.0
05 20:15 Calm 16.09 Overcast OVC080 7 6 93% 75.97 0.0
05 19:55 Calm 16.09 Overcast SCT005 OVC080 7 6 93% 75.92 0.0
05 19:35 Calm 16.09 Overcast SCT005 OVC080 7 7 100% 75.92 0.0
05 19:15 Calm 16.09 Overcast OVC080 7 6 93% 75.95 0.0
05 18:55 Calm 16.09 Overcast SCT075 OVC090 7 6 93% 75.92 0.0
05 18:35 Calm 16.09 Overcast BKN075 OVC100 7 6 93% 75.92 0.0
05 18:15 Calm 16.09 Overcast OVC075 7 6 93% 75.92 0.0
05 17:55 Calm 16.09 Overcast OVC075 7 6 93% 75.92 0.0
05 17:35 Calm 16.09 Mostly Cloudy BKN080 BKN085 BKN110 7 6 93% 75.92 0.0
05 17:15 Calm 16.09 Light Rain SCT027 SCT037 BKN048 7 6 93% 75.92 0.0
05 16:55 Calm 16.09 Light Rain SCT037 BKN046 OVC065 7 6 93% 75.92 0.0 0.05
05 16:35 Calm 16.09 Light Rain OVC065 7 6 93% 75.95 0.0 0.05
05 16:15 Calm 16.09 Light Rain OVC065 7 6 93% 75.95 0.0 0.03
Date Time (cdt) Wind (kph) Vis. (km) Weather Sky Cond. Air Dwpt Max. Min. Relative Humidity Wind Chill (°C) Heat Index (°C) altimeter (cm) sea level (mb) 1 hr 3 hr 6 hr
6 hour
Temperature (ºC) Pressure Precipitation (cm)